Date,TemperatureHighF,TemperatureAvgF,TemperatureLowF,DewpointHighF,DewpointAvgF,DewpointLowF,HumidityHigh,HumidityAvg,HumidityLow,PressureMaxIn,PressureMinIn,WindSpeedMaxMPH,WindSpeedAvgMPH,GustSpeedMaxMPH,PrecipitationSumIn
2013-1-1,70,58,48,68,55,43,96,90,83,30.15,29.81,8,4,22,0.11
2013-1-2,48,43,41,43,40,39,92,88,81,30.26,30.13,7,3,18,0.17
2013-1-3,50,46,41,40,38,35,89,74,57,30.36,30.23,7,4,16,0.00
2013-1-4,51,48,44,41,40,38,82,72,62,30.42,30.30,8,4,21,0.00
2013-1-5,48,46,44,47,44,38,94,90,71,30.32,30.20,5,2,15,0.15
2013-1-6,60,50,42,48,44,40,95,81,62,30.30,30.20,8,3,17,0.00
2013-1-7,63,53,42,54,48,39,91,82,70,30.26,30.00,5,2,14,0.00
2013-1-8,69,62,54,67,60,51,96,94,89,29.99,29.79,6,3,16,0.25
2013-1-9,68,63,59,65,61,58,97,94,86,30.00,29.76,10,3,21,1.06
2013-1-10,67,59,53,58,52,50,96,79,55,30.07,29.96,3,1,12,0.01
2013-1-11,69,62,51,68,59,49,96,90,79,30.01,29.79,5,2,13,0.00
2013-1-12,72,70,68,70,68,66,97,95,93,29.83,29.60,8,5,18,0.00
2013-1-13,70,51,44,69,46,41,95,83,67,30.04,29.70,6,4,22,0.12
2013-1-14,48,45,40,43,40,36,88,83,73,30.15,30.02,8,5,20,0.00
2013-1-15,46,42,40,43,40,37,100,92,85,30.13,30.00,6,3,15,0.11
2013-1-16,55,45,38,38,32,28,89,63,36,30.31,30.14,6,3,17,0.00
2013-1-17,66,50,37,43,37,31,90,66,39,30.42,30.25,4,1,12,0.00
2013-1-18,63,51,44,47,41,38,89,70,40,30.46,30.35,4,2,12,0.00
2013-1-19,64,53,48,55,48,44,91,83,68,30.30,30.22,6,2,13,0.00
2013-1-20,72,59,51,58,54,49,95,82,51,30.21,30.07,4,1,10,0.00
2013-1-21,71,60,54,61,55,52,95,85,59,30.20,30.07,2,1,7,0.00
2013-1-22,70,60,48,58,54,46,96,84,60,30.26,30.14,4,2,12,0.01
2013-1-23,74,64,54,65,60,52,96,87,69,30.30,30.18,5,2,14,0.01
2013-1-24,76,67,59,67,63,58,96,87,70,30.25,30.11,10,4,19,0.01
2013-1-25,77,69,62,67,65,61,96,87,70,30.14,30.02,11,4,20,0.01
2013-1-26,75,69,64,67,64,62,95,87,72,30.12,30.03,6,3,14,0.00
2013-1-27,74,68,64,69,66,63,95,92,87,30.07,29.96,6,3,15,0.01
2013-1-28,76,71,68,70,68,66,95,91,79,30.04,29.89,9,5,22,0.00
2013-1-29,76,72,61,71,69,55,94,90,80,29.89,29.55,14,8,32,0.03
2013-1-30,66,61,57,56,39,30,82,45,27,30.05,29.72,11,6,29,0.01
2013-1-31,67,56,44,49,39,30,82,55,27,30.28,30.17,6,2,16,0.00
2013-2-1,69,62,56,56,51,48,90,69,48,30.31,30.18,6,2,15,0.00
2013-2-2,75,64,56,61,58,54,94,81,58,30.21,30.12,5,1,11,0.00
2013-2-3,71,61,53,59,54,50,95,80,50,30.26,30.00,6,3,16,0.00
2013-2-4,75,67,60,67,63,58,95,88,75,29.98,29.77,9,2,19,0.00
2013-2-5,78,68,63,69,65,62,97,91,73,29.93,29.81,4,1,10,0.01
2013-2-6,68,67,60,67,65,59,96,94,85,29.96,29.78,12,4,24,1.81
2013-2-7,72,64,58,66,62,57,96,92,82,29.95,29.84,3,1,9,0.00
2013-2-8,70,62,55,62,56,51,96,81,60,30.14,29.95,7,3,14,0.01
2013-2-9,69,64,54,67,61,53,96,92,87,30.05,29.78,7,4,17,0.00
2013-2-10,73,68,64,70,64,54,95,86,64,29.84,29.74,7,4,18,0.00
2013-2-11,64,60,56,58,54,48,94,80,59,29.96,29.87,11,6,25,0.00
2013-2-12,65,60,57,61,58,56,96,92,83,29.95,29.76,5,2,14,0.00
2013-2-13,63,55,47,57,46,42,91,72,52,30.12,29.95,6,3,15,0.02
2013-2-14,66,55,44,48,44,40,88,69,41,30.12,30.00,5,2,10,0.00
2013-2-15,68,59,48,53,47,44,93,68,42,30.25,30.04,7,2,21,0.00
2013-2-16,65,54,42,43,36,31,74,53,33,30.42,30.23,7,2,17,0.00
2013-2-17,69,60,46,58,51,43,93,72,48,30.23,29.99,7,4,18,0.00
2013-2-18,74,68,64,67,63,58,93,84,78,29.99,29.82,12,6,26,0.00
2013-2-19,72,62,56,63,46,40,93,58,32,30.18,30.00,11,6,22,0.00
2013-2-20,69,64,56,66,60,51,94,86,74,30.03,29.68,10,6,20,0.00
2013-2-21,78,71,67,72,66,53,95,87,54,29.71,29.58,8,5,21,0.04
2013-2-22,67,63,58,53,50,46,73,63,52,29.91,29.76,11,5,21,0.00
2013-2-23,64,55,50,51,46,42,75,70,61,29.97,29.88,10,4,19,0.00
2013-2-24,69,59,49,62,56,48,96,89,76,29.87,29.64,8,3,16,0.00
2013-2-25,73,66,60,67,52,36,96,65,27,29.71,29.49,20,6,29,0.00
2013-2-26,67,55,46,43,38,36,69,53,33,29.93,29.80,7,3,19,0.00
2013-2-27,60,56,52,56,51,48,93,85,65,30.00,29.84,4,1,10,0.00
2013-2-28,60,51,45,41,35,30,74,54,36,30.25,30.14,8,2,18,0.00
2013-3-1,70,56,41,48,39,33,80,57,26,30.25,30.08,5,1,13,0.00
2013-3-2,62,53,43,46,34,25,83,52,28,30.37,30.20,6,3,17,0.00
2013-3-3,68,52,42,50,39,30,79,62,51,30.25,30.09,6,2,15,0.00
2013-3-4,74,67,61,63,60,56,89,79,64,29.96,29.74,15,8,32,0.00
2013-3-5,69,64,57,63,55,43,92,74,39,30.15,29.76,12,6,25,0.00
2013-3-6,62,51,38,46,32,27,69,49,32,30.40,30.19,8,3,16,0.00
2013-3-7,68,60,49,58,53,47,93,81,66,30.21,30.10,8,3,18,0.00
2013-3-8,72,65,58,65,61,55,94,88,77,30.11,30.00,8,4,20,0.00
2013-3-9,74,68,65,68,65,62,93,89,80,29.99,29.64,8,5,21,0.00
2013-3-10,74,66,56,67,55,43,94,71,42,30.02,29.61,10,5,20,0.21
2013-3-11,68,58,47,44,37,27,75,49,25,30.11,29.96,8,3,17,0.00
2013-3-12,71,59,47,55,44,33,86,60,30,30.18,30.03,5,2,12,0.00
2013-3-13,73,61,49,56,50,44,92,70,37,30.38,30.17,6,3,14,0.00
2013-3-14,72,63,52,60,55,50,94,76,57,30.35,30.24,7,2,14,0.00
2013-3-15,75,67,61,63,60,56,91,78,60,30.24,30.02,8,4,19,0.00
2013-3-16,77,70,64,66,63,60,90,79,65,30.01,29.80,10,6,21,0.00
2013-3-17,78,71,67,69,67,64,94,86,73,29.81,29.64,8,4,20,0.00
2013-3-18,82,73,67,70,68,65,94,84,67,29.84,29.68,5,3,14,0.00
2013-3-19,76,70,63,69,64,56,92,82,71,29.93,29.80,7,4,16,0.00
2013-3-20,76,67,62,65,58,51,91,73,41,30.11,29.86,12,5,25,0.00
2013-3-21,73,68,62,65,60,54,85,75,66,30.00,29.65,7,4,17,0.00
2013-3-22,74,71,70,70,69,66,94,91,88,29.68,29.61,7,3,17,0.00
2013-3-23,71,69,62,69,67,60,96,95,89,29.67,29.59,4,2,14,0.00
2013-3-24,67,62,53,65,46,31,96,62,30,30.03,29.59,8,4,24,0.01
2013-3-25,64,53,41,34,28,20,71,42,19,30.30,30.09,14,5,22,0.00
2013-3-26,68,56,44,42,29,25,59,37,21,30.44,30.27,7,4,16,0.00
2013-3-27,68,60,49,55,47,41,78,64,51,30.31,30.16,7,3,16,0.00
2013-3-28,72,67,64,63,61,58,89,82,72,30.19,30.11,6,2,15,0.00
2013-3-29,76,68,61,66,63,59,94,83,68,30.15,30.05,9,3,17,0.00
2013-3-30,77,71,65,69,66,62,93,86,73,30.07,29.91,6,3,14,0.00
2013-3-31,78,72,69,70,68,66,94,87,73,29.93,29.78,8,4,17,0.00
2013-4-1,79,71,66,70,67,63,94,87,69,29.98,29.85,8,3,17,0.00
2013-4-2,77,70,68,71,68,66,94,92,84,29.94,29.84,5,2,16,0.03
2013-4-3,69,66,62,66,62,59,93,88,81,29.89,29.70,8,4,18,0.11
2013-4-4,65,57,52,53,50,46,91,76,56,30.14,30.01,6,3,18,0.00
2013-4-5,66,57,45,56,49,42,91,77,60,30.23,30.05,7,3,16,0.00
2013-4-6,74,67,60,64,61,55,90,80,66,30.07,29.88,6,4,19,0.00
2013-4-7,77,71,66,67,65,63,91,82,70,29.92,29.80,7,4,20,0.00
2013-4-8,77,72,68,70,68,66,95,89,79,29.80,29.67,8,4,19,0.00
2013-4-9,79,73,69,73,70,67,93,90,81,29.72,29.59,8,5,24,0.00
2013-4-10,77,66,53,73,63,48,94,91,81,29.79,29.60,7,5,20,0.02
2013-4-11,75,59,46,53,47,43,90,66,37,29.89,29.74,9,3,21,0.33
2013-4-12,78,64,50,61,54,46,92,70,37,29.95,29.83,7,2,15,0.00
2013-4-13,75,68,59,64,61,57,93,79,66,29.90,29.73,7,3,17,0.00
2013-4-14,82,71,62,72,67,60,95,87,73,29.76,29.62,5,3,17,0.00
2013-4-15,81,74,70,73,70,68,93,88,73,29.78,29.67,6,4,17,0.00
2013-4-16,79,74,71,72,71,68,94,88,76,29.86,29.75,8,4,19,0.00
2013-4-17,77,74,73,73,72,71,95,93,89,29.86,29.65,8,4,17,0.00
2013-4-18,75,68,57,74,65,49,96,90,70,29.90,29.61,7,4,22,0.08
2013-4-19,72,59,50,48,40,32,74,50,27,30.24,30.00,9,4,22,0.00
2013-4-20,70,60,47,52,44,33,70,55,37,30.18,30.02,5,3,15,0.00
2013-4-21,64,58,55,58,53,51,89,85,75,30.07,30.00,2,1,6,0.00
2013-4-22,79,68,58,66,62,56,95,81,62,30.06,29.89,7,2,13,0.00
2013-4-23,77,72,68,71,68,66,93,87,78,29.91,29.82,6,3,15,0.00
2013-4-24,73,56,49,70,50,45,93,81,63,30.12,29.92,8,5,20,0.06
2013-4-25,69,64,58,64,56,52,91,76,60,30.24,30.12,6,2,19,0.16
2013-4-26,78,72,67,72,69,64,96,91,83,30.14,30.02,7,4,17,0.00
2013-4-27,80,74,70,72,70,68,96,90,75,30.05,29.90,6,3,15,0.00
2013-4-28,77,71,65,71,67,62,94,86,72,30.01,29.82,10,2,21,0.74
2013-4-29,80,72,67,72,69,65,95,91,74,29.88,29.77,4,2,12,0.10
2013-4-30,79,73,67,72,69,65,95,88,71,29.78,29.68,4,2,12,0.14
2013-5-1,82,75,70,73,71,68,95,87,72,29.82,29.72,5,2,12,0.00
2013-5-2,78,68,52,70,60,44,95,76,62,30.20,29.78,7,3,22,0.00
2013-5-3,71,59,49,45,39,36,76,50,28,30.21,30.03,6,3,23,0.00
2013-5-4,80,65,51,57,48,37,79,55,30,30.07,29.85,9,2,18,0.00
2013-5-5,82,69,56,59,53,48,90,61,31,30.05,29.89,5,2,12,0.00
2013-5-6,81,69,56,61,56,49,81,64,43,30.08,29.91,3,1,12,0.00
2013-5-7,79,70,59,66,62,57,92,74,48,30.03,29.92,5,2,12,0.00
2013-5-8,80,74,69,70,67,66,90,80,65,30.00,29.90,6,3,17,0.00
2013-5-9,78,75,73,74,72,70,93,90,86,29.92,29.78,6,3,18,0.00
2013-5-10,75,75,74,73,73,72,95,94,93,29.88,29.75,3,1,10,0.00
2013-5-11,88,77,67,70,67,65,92,74,50,29.98,29.90,5,3,16,0.01
2013-5-12,83,74,69,67,61,55,74,63,41,30.12,29.97,6,3,16,0.00
2013-5-13,80,72,62,68,64,58,89,75,59,30.20,30.11,5,2,15,0.00
2013-5-14,80,74,68,72,69,64,91,84,75,30.18,30.03,6,3,17,0.00
2013-5-15,78,74,72,73,71,69,94,88,83,30.08,29.85,7,3,19,0.06
2013-5-16,83,77,74,74,72,70,91,85,75,29.86,29.73,7,4,21,0.00
2013-5-17,86,79,74,76,74,72,93,85,73,29.86,29.76,5,3,16,0.00
2013-5-18,88,80,77,76,74,72,91,82,63,29.89,29.82,6,4,19,0.00
2013-5-19,86,80,77,76,74,72,89,83,69,29.84,29.74,6,4,21,0.00
2013-5-20,85,81,78,77,75,73,88,82,75,29.82,29.70,7,4,17,0.00
2013-5-21,83,79,78,76,75,74,91,88,76,29.79,29.70,5,3,19,0.00
2013-5-22,79,79,78,76,76,76,92,91,90,29.76,29.74,2,0,9,0.00
2013-5-23,86,81,78,78,76,74,90,84,75,29.97,29.82,5,3,16,0.00
2013-5-24,86,81,78,77,76,75,90,84,73,30.05,29.93,5,4,17,0.00
2013-5-25,84,80,78,76,74,73,88,83,75,30.07,29.97,7,4,16,0.00
2013-5-26,86,81,77,75,73,72,88,79,66,30.04,29.94,5,3,15,0.00
2013-5-27,87,81,77,77,74,72,88,80,68,29.97,29.90,6,3,21,0.00
2013-5-28,86,81,78,77,74,72,85,80,73,29.88,29.78,8,5,21,0.00
2013-5-29,84,81,79,77,76,74,89,83,76,29.81,29.72,7,4,21,0.00
2013-5-30,87,82,79,78,76,75,90,83,73,29.80,29.73,6,4,19,0.00
2013-5-31,89,83,79,79,77,76,92,83,70,29.85,29.76,5,3,17,0.01
2013-6-1,91,84,80,78,77,76,89,81,63,29.84,29.76,6,4,20,0.00
2013-6-2,92,81,72,79,75,69,93,81,53,29.99,29.80,6,2,16,0.03
2013-6-3,90,81,72,74,71,69,94,75,52,29.90,29.77,5,1,16,0.00
2013-6-4,89,81,74,74,72,70,89,73,55,29.86,29.77,4,2,13,0.00
2013-6-5,90,84,77,78,75,73,91,77,58,29.83,29.72,4,2,13,0.00
2013-6-6,91,84,75,78,76,71,93,78,58,29.84,29.68,6,2,20,0.00
2013-6-7,91,80,73,72,71,69,91,76,51,29.87,29.77,4,2,16,0.04
2013-6-8,88,79,72,77,73,66,92,82,65,29.86,29.80,7,1,23,0.14
2013-6-9,89,79,70,79,75,67,94,86,68,29.88,29.78,7,2,18,0.90
2013-6-10,90,82,73,80,76,71,96,83,67,29.92,29.87,5,2,13,0.23
2013-6-11,89,84,80,80,77,75,87,80,70,29.98,29.90,5,2,14,0.05
2013-6-12,89,84,81,80,77,75,88,81,67,29.99,29.92,5,2,14,0.03
2013-6-13,82,82,82,77,77,77,86,86,86,30.00,29.87,2,2,0,0.00
2013-6-14,82,82,82,77,77,77,86,86,86,29.93,29.83,2,2,0,0.00
2013-6-15,82,80,0,77,76,0,86,84,86,29.93,29.84,2,2,2,0.00
2013-6-16,91,59,0,80,53,0,83,51,66,29.96,29.87,5,2,14,0.00
2013-6-17,88,83,81,79,77,76,87,83,73,29.93,29.87,6,3,14,0.00
2013-6-18,92,85,80,78,76,74,88,77,57,29.93,29.85,10,3,15,0.00
2013-6-19,87,82,80,78,77,76,87,84,74,29.92,29.86,11,3,13,0.00
2013-6-20,83,82,81,78,77,77,87,86,83,29.96,29.90,3,2,13,0.00
2013-6-21,90,85,82,80,78,77,87,79,68,30.02,29.95,5,3,13,0.00
2013-6-22,90,85,81,80,78,76,88,80,68,29.99,29.88,5,3,16,0.00
2013-6-23,90,79,0,79,72,0,86,72,59,29.95,29.87,5,3,15,0.00
2013-6-24,90,86,82,80,78,76,86,78,67,29.99,29.90,6,4,17,0.00
2013-6-25,91,86,82,79,78,76,87,77,65,29.97,29.88,7,4,17,0.00
2013-6-26,92,86,81,80,78,76,86,77,60,29.94,29.87,6,4,17,0.00
2013-6-27,92,85,81,78,77,75,87,76,59,29.97,29.87,5,3,13,0.00
2013-6-28,96,71,0,78,62,0,88,57,48,29.94,29.77,4,2,15,0.00
2013-6-29,102,88,79,80,77,74,91,71,41,29.82,29.66,13,3,16,0.00
2013-6-30,99,78,0,78,64,0,85,57,36,29.84,29.72,3,1,16,0.00
2013-7-1,100,87,77,74,66,58,80,52,26,29.91,29.77,5,2,15,0.00
2013-7-2,100,86,76,72,66,59,83,57,28,29.97,29.85,5,1,15,0.00
2013-7-3,93,83,75,74,71,62,89,68,36,29.96,29.85,5,2,15,0.00
2013-7-4,91,83,74,76,71,63,88,70,41,29.93,29.87,3,1,11,0.00
2013-7-5,92,84,74,76,73,71,90,72,53,29.91,29.82,5,2,14,0.00
2013-7-6,92,86,76,78,76,72,90,73,59,29.86,29.78,6,3,15,0.00
2013-7-7,91,84,79,79,77,75,92,79,59,29.93,29.82,6,2,17,0.01
2013-7-8,91,83,77,79,77,74,91,81,66,30.06,29.93,5,3,14,0.03
2013-7-9,91,86,81,80,78,77,90,79,67,30.07,29.98,5,2,14,0.02
2013-7-10,92,86,81,78,77,76,88,76,62,30.03,29.90,5,2,14,0.00
2013-7-11,93,86,81,78,77,75,86,75,60,29.95,29.85,4,2,15,0.00
2013-7-12,85,81,79,78,76,75,90,85,80,29.90,29.85,4,2,15,0.00
2013-7-13,95,86,78,78,74,67,91,71,41,29.92,29.80,4,1,15,0.00
2013-7-14,91,84,81,78,76,74,85,77,60,29.87,29.82,4,2,12,0.00
2013-7-15,90,84,78,78,76,73,87,76,63,29.92,29.82,5,3,16,0.02
2013-7-16,92,84,79,78,75,72,84,74,53,29.99,29.91,7,4,17,0.00
2013-7-17,85,4,0,77,4,0,80,4,78,30.06,30.00,5,0,7,0.00
2013-7-18,91,82,77,78,76,72,91,81,60,30.07,29.92,6,2,13,0.01
2013-7-19,92,84,76,78,76,74,93,78,57,29.99,29.87,4,1,12,0.00
2013-7-20,90,84,78,78,76,75,90,77,65,29.92,29.81,5,2,17,0.00
2013-7-21,88,82,76,80,77,73,93,87,77,29.93,29.84,4,2,17,0.75
2013-7-22,91,83,0,80,77,0,89,78,65,29.97,29.89,5,2,18,0.00
2013-7-23,91,80,0,79,72,0,87,72,64,29.97,29.87,6,3,17,0.00
2013-7-24,87,83,82,78,77,77,85,83,75,29.93,29.86,6,4,15,0.00
2013-7-25,94,86,80,80,78,76,88,78,59,29.97,29.90,5,2,13,0.00
2013-7-26,90,85,81,79,78,76,89,79,67,29.98,29.87,6,3,18,0.00
2013-7-27,93,85,81,79,78,77,90,80,62,29.90,29.78,6,4,19,0.01
2013-7-28,92,60,0,78,53,0,83,49,62,29.90,29.83,6,3,18,0.00
2013-7-29,92,86,82,79,78,77,87,78,62,30.00,29.89,7,3,16,0.00
2013-7-30,93,62,0,79,56,0,84,53,60,30.05,29.97,5,2,15,0.00
2013-7-31,94,86,80,78,77,74,89,76,52,30.04,29.90,4,2,13,0.00
2013-8-1,97,74,0,78,64,0,87,57,48,29.98,29.86,4,2,13,0.00
2013-8-2,93,73,0,79,64,0,87,61,56,29.93,29.86,5,2,12,0.00
2013-8-3,94,86,80,80,78,75,89,76,63,29.97,29.91,5,2,15,0.00
2013-8-4,94,86,82,80,78,76,88,77,59,30.01,29.92,5,3,18,0.00
2013-8-5,94,87,82,80,78,76,89,76,58,29.98,29.88,6,4,17,0.00
2013-8-6,94,87,82,79,78,77,90,77,59,29.92,29.81,8,4,24,0.00
2013-8-7,94,86,81,79,78,76,90,77,57,29.89,29.79,9,4,21,0.00
2013-8-8,83,82,82,78,78,78,88,86,84,29.86,29.82,5,3,15,0.00
2013-8-9,85,82,80,79,77,76,89,86,80,29.89,29.83,2,1,10,0.00
2013-8-10,94,84,75,81,78,70,93,82,57,29.98,29.89,8,2,21,0.21
2013-8-11,94,85,79,80,77,75,93,79,57,29.99,29.92,6,1,15,0.00
2013-8-12,94,86,81,79,78,76,88,77,59,30.02,29.92,5,2,15,0.00
2013-8-13,96,88,82,79,78,74,88,73,52,29.98,29.85,7,3,18,0.00
2013-8-14,98,88,81,79,77,72,89,72,45,29.93,29.82,6,3,16,0.00
2013-8-15,95,86,80,79,76,71,89,76,50,29.94,29.84,5,2,14,0.01
2013-8-16,98,85,74,79,76,72,94,76,48,29.94,29.80,7,2,17,0.38
2013-8-17,95,82,73,77,74,70,94,76,47,29.94,29.84,4,2,14,0.00
2013-8-18,94,78,0,76,67,0,92,64,44,29.96,29.89,5,2,14,0.00
2013-8-19,92,82,73,76,74,69,94,76,50,29.98,29.87,5,2,14,0.00
2013-8-20,82,78,73,76,74,71,95,88,80,30.00,29.88,3,0,11,1.32
2013-8-21,87,80,77,80,76,74,93,88,71,30.00,29.93,4,1,7,0.01
2013-8-22,91,82,78,79,77,75,93,84,68,29.99,29.92,4,1,11,0.00
2013-8-23,93,84,77,80,76,74,94,79,55,29.94,29.83,5,2,13,0.00
2013-8-24,93,84,77,80,77,74,94,79,59,29.95,29.88,8,2,16,0.00
2013-8-25,89,81,77,79,76,74,94,86,69,29.98,29.92,4,2,12,0.46
2013-8-26,80,76,74,77,75,73,96,95,90,30.03,29.95,4,1,13,2.83
2013-8-27,89,81,74,81,77,73,96,87,72,30.03,29.96,5,2,15,0.01
2013-8-28,91,83,76,79,76,74,95,82,64,30.03,29.94,5,1,13,0.00
2013-8-29,95,86,79,81,77,71,92,75,49,30.02,29.89,7,1,13,0.00
2013-8-30,83,82,80,78,78,77,91,88,85,29.93,29.92,2,1,7,0.00
2013-8-31,91,86,79,78,76,75,89,75,61,29.90,29.79,3,1,15,0.00
2013-9-1,92,86,80,80,77,75,88,77,62,29.87,29.79,5,2,13,0.00
2013-9-2,90,85,82,79,78,72,88,78,57,29.91,29.80,5,2,18,0.00
2013-9-3,95,85,77,80,77,72,94,76,49,29.95,29.83,3,1,13,0.00
2013-9-4,94,85,79,80,77,76,91,78,59,29.98,29.87,4,1,12,0.00
2013-9-5,90,84,78,80,77,75,91,81,68,30.02,29.93,4,2,13,0.09
2013-9-6,92,84,78,79,77,75,92,80,61,30.01,29.89,5,2,12,0.00
2013-9-7,82,24,0,77,22,0,85,24,84,29.94,29.89,1,0,4,0.00
2013-9-8,87,80,75,78,76,73,95,88,74,29.91,29.83,5,1,12,0.66
2013-9-9,88,80,75,78,75,73,94,86,67,29.91,29.84,7,2,17,0.02
2013-9-10,85,77,76,78,74,74,94,91,80,29.95,29.89,2,1,9,0.00
2013-9-11,90,81,76,80,76,73,94,85,68,30.00,29.93,6,2,15,0.07
2013-9-12,92,83,77,78,76,73,92,80,54,29.96,29.85,4,2,13,0.00
2013-9-13,92,82,74,77,75,71,92,79,58,29.88,29.75,6,2,13,0.00
2013-9-14,91,83,75,78,75,73,94,79,60,29.84,29.77,6,2,16,0.00
2013-9-15,90,83,77,80,76,74,91,82,65,29.91,29.81,6,3,15,0.01
2013-9-16,89,83,78,79,77,75,92,83,68,29.94,29.86,8,3,17,0.00
2013-9-17,88,82,78,80,77,76,93,87,73,29.96,29.89,5,2,13,0.02
2013-9-18,90,83,77,79,77,75,93,82,65,29.92,29.82,6,2,15,0.00
2013-9-19,90,84,77,80,78,76,94,84,72,29.87,29.76,5,2,17,0.08
2013-9-20,88,82,77,81,78,75,94,89,78,29.80,29.65,4,2,20,0.26
2013-9-21,81,76,72,75,72,70,96,87,72,29.78,29.67,7,4,21,0.43
2013-9-22,86,64,0,71,54,0,89,54,49,29.77,29.67,4,2,16,0.00
2013-9-23,88,78,70,76,71,66,88,78,67,29.74,29.66,4,2,15,0.00
2013-9-24,94,81,75,78,75,72,91,82,54,29.82,29.73,3,1,10,0.00
2013-9-25,92,82,74,78,75,67,95,80,44,29.83,29.76,3,0,11,0.00
2013-9-26,88,82,76,79,76,72,90,81,71,29.84,29.76,9,2,14,0.00
2013-9-27,89,84,80,81,79,77,90,84,77,29.86,29.79,6,3,16,0.00
2013-9-28,90,84,81,81,79,78,91,84,74,29.90,29.82,6,3,14,0.02
2013-9-29,90,82,76,80,77,74,93,85,67,29.93,29.83,3,1,11,0.43
2013-9-30,89,79,72,78,75,70,94,86,65,29.86,29.75,3,1,11,0.02
2013-10-1,84,60,0,78,57,0,93,67,80,29.86,29.77,7,1,13,0.35
2013-10-2,87,82,78,79,77,73,91,84,74,29.89,29.81,5,2,14,0.58
2013-10-3,89,63,0,77,57,0,84,56,67,29.88,29.81,4,1,13,0.00
2013-10-4,87,84,81,78,76,74,82,77,72,29.87,29.81,5,2,13,0.00
2013-10-5,88,81,76,78,76,70,93,84,65,29.88,29.80,6,1,14,0.00
2013-10-6,80,67,56,63,56,51,92,69,40,30.05,29.90,7,5,20,0.26
2013-10-7,83,68,57,57,52,46,81,61,30,30.09,30.00,4,1,13,0.00
2013-10-8,82,68,57,59,56,50,90,69,34,30.04,29.97,3,0,9,0.00
2013-10-9,83,70,64,69,63,60,90,81,57,30.00,29.93,3,0,9,0.00
2013-10-10,85,77,68,73,70,65,92,79,66,29.98,29.86,6,2,14,0.00
2013-10-11,85,80,77,78,75,72,92,84,77,29.88,29.80,5,2,13,0.00
2013-10-12,88,82,79,81,78,76,94,88,76,29.96,29.84,4,2,14,0.04
2013-10-13,82,78,73,78,76,72,96,93,84,30.07,29.94,4,1,15,2.43
2013-10-14,86,80,74,76,74,73,96,84,71,30.01,29.89,5,2,15,0.02
2013-10-15,86,81,78,76,74,73,88,79,69,29.92,29.82,6,2,12,0.00
2013-10-16,78,73,66,73,69,63,93,88,83,29.94,29.82,4,2,13,0.02
2013-10-17,79,69,62,63,60,55,90,73,56,30.04,29.90,6,2,15,0.00
2013-10-18,76,70,66,71,66,60,91,86,77,29.93,29.78,5,3,14,0.01
2013-10-19,72,65,57,67,57,47,95,77,49,30.07,29.86,6,4,23,0.23
2013-10-20,76,64,53,64,54,47,81,72,65,30.04,29.88,3,2,12,0.00
2013-10-21,77,70,65,73,68,62,94,91,83,29.92,29.82,4,1,10,0.17
2013-10-22,78,68,60,69,60,51,95,78,47,30.06,29.92,5,2,15,0.01
2013-10-23,82,67,54,60,55,50,91,69,36,30.12,30.03,2,0,7,0.00
2013-10-24,81,69,56,65,60,54,92,77,49,30.16,30.07,2,0,10,0.00
2013-10-25,80,70,61,69,64,59,94,82,63,30.25,30.15,5,2,14,0.02
2013-10-26,81,69,64,70,65,62,94,88,68,30.16,30.09,6,2,14,0.01
2013-10-27,80,74,68,73,68,63,94,85,70,30.05,29.94,6,1,16,0.01
2013-10-28,83,75,68,75,70,66,96,86,71,30.03,29.94,5,2,13,0.01
2013-10-29,84,78,75,75,73,71,91,83,73,30.04,29.95,9,3,13,0.00
2013-10-30,84,79,76,78,76,74,95,90,81,29.97,29.79,6,3,21,0.31
2013-10-31,80,58,0,77,56,0,95,68,80,29.80,29.72,9,2,28,1.46
2013-11-1,80,73,64,72,67,62,95,82,65,29.87,29.77,4,1,11,0.01
2013-11-2,75,67,59,59,51,44,76,57,35,30.18,29.94,8,3,18,0.00
2013-11-3,73,64,53,59,52,44,77,65,54,30.17,29.99,4,2,15,0.00
2013-11-4,74,67,60,69,63,57,92,87,81,30.01,29.88,4,1,10,0.00
2013-11-5,77,72,69,73,70,68,96,94,87,29.96,29.88,5,2,13,0.84
2013-11-6,87,76,71,76,72,68,96,88,65,30.02,29.91,9,0,18,0.41
2013-11-7,56,54,52,51,47,43,83,77,69,30.31,30.18,7,5,20,0.01
2013-11-8,69,59,50,54,50,45,85,73,58,30.30,30.12,6,2,17,0.00
2013-11-9,75,65,55,63,58,49,86,79,66,30.13,30.06,6,2,12,0.00
2013-11-10,71,67,64,62,58,50,86,73,50,30.22,30.10,4,2,12,0.00
2013-11-11,78,68,60,64,59,52,88,74,54,30.19,30.08,3,1,10,0.00
2013-11-12,72,61,52,60,55,46,90,79,60,30.49,30.15,10,5,24,0.00
2013-11-13,58,49,41,46,37,33,83,64,42,30.55,30.38,7,4,19,0.00
2013-11-14,66,56,43,57,49,37,91,77,65,30.35,29.99,4,2,12,0.00
2013-11-15,78,67,56,67,62,55,95,86,68,29.99,29.85,3,1,10,0.00
2013-11-16,80,73,66,75,70,64,96,92,83,29.88,29.74,3,1,13,0.01
2013-11-17,81,76,73,75,73,71,95,89,78,29.85,29.73,7,2,18,0.00
2013-11-18,72,71,70,71,70,69,97,97,96,29.93,29.87,0,0,3,0.01
2013-11-19,69,65,64,57,53,51,71,66,61,30.05,29.96,5,4,17,0.00
2013-11-20,73,64,62,65,60,58,87,85,77,29.95,29.92,5,2,11,0.00
2013-11-21,80,75,71,76,72,69,95,91,86,29.97,29.88,3,2,12,0.02
2013-11-22,74,62,49,72,61,47,95,94,92,30.17,29.98,8,3,20,0.34
2013-11-23,45,43,42,44,41,40,94,94,93,30.30,30.22,6,4,19,0.00
2013-11-24,49,46,43,45,40,37,88,78,67,30.36,30.23,6,4,17,0.00
2013-11-25,45,43,41,43,41,39,94,92,85,30.23,29.96,7,4,18,0.33
2013-11-26,49,44,42,42,40,39,94,86,76,30.28,30.02,4,2,17,0.14
2013-11-27,54,44,37,38,34,30,88,67,44,30.41,30.27,7,2,18,0.00
2013-11-28,61,49,39,47,37,22,86,67,22,30.41,30.30,2,1,6,0.00
2013-11-29,52,50,48,48,46,44,90,87,81,30.41,30.35,6,4,13,0.00
2013-11-30,72,60,49,60,54,45,92,80,65,30.33,30.17,5,2,11,0.00
2013-12-1,64,58,56,61,56,54,94,93,91,30.16,30.11,1,0,3,0.00
2013-12-2,76,65,60,67,62,58,95,89,73,29.92,29.68,5,2,13,0.01
2013-12-3,77,67,61,68,63,59,94,87,72,29.72,29.59,6,3,19,0.01
2013-12-4,69,67,66,67,66,65,95,94,93,29.74,29.66,4,3,13,0.00
2013-12-5,73,63,44,71,60,40,96,92,83,29.92,29.74,9,3,22,0.01
2013-12-6,46,40,36,40,36,32,92,86,80,30.32,29.93,11,4,21,0.00
2013-12-7,36,35,34,33,32,30,91,86,83,30.38,30.23,7,4,17,0.00
2013-12-8,49,42,35,44,39,33,93,88,78,30.22,30.00,3,1,11,0.00
2013-12-9,51,47,41,49,46,39,98,94,93,30.24,29.99,7,4,20,0.10
2013-12-10,50,41,34,39,34,31,93,79,53,30.41,30.24,7,4,20,0.01
2013-12-11,56,48,43,45,39,34,77,72,67,30.36,30.27,3,1,9,0.00
2013-12-12,55,48,41,42,40,37,85,74,58,30.50,30.30,6,3,19,0.00
2013-12-13,63,54,45,59,49,40,90,83,72,30.30,29.81,3,1,9,0.00
2013-12-14,66,54,41,54,48,36,92,81,56,30.26,29.84,9,2,25,0.00
2013-12-15,41,40,39,37,36,35,87,86,84,30.29,30.26,2,1,9,0.00
2013-12-16,62,48,36,45,38,34,93,74,40,30.31,30.18,3,1,9,0.00
2013-12-17,70,53,41,54,46,38,94,81,32,30.30,30.19,3,0,7,0.01
2013-12-18,69,52,43,59,49,41,94,89,66,30.25,30.21,3,0,7,0.01
2013-12-19,72,64,62,66,60,56,92,86,79,30.04,29.94,3,2,11,0.00
2013-12-20,74,70,65,71,67,63,95,92,87,29.83,29.70,4,2,12,0.00
2013-12-21,73,71,70,70,69,67,94,92,90,29.65,29.55,17,5,22,0.08
2013-12-22,70,58,48,57,50,40,91,75,47,30.29,29.77,7,3,17,0.00
2013-12-23,59,41,0,40,31,0,83,53,41,30.48,30.28,6,3,13,0.00
2013-12-24,58,47,36,47,40,32,87,78,60,30.50,30.24,5,2,13,0.00
2013-12-25,63,56,47,55,51,43,89,84,73,30.29,30.18,6,3,15,0.02
2013-12-26,59,55,52,52,50,48,92,84,76,30.34,30.25,6,3,14,0.01
2013-12-27,57,53,50,52,49,48,93,87,74,30.37,30.25,3,1,9,0.10
2013-12-28,52,50,48,44,42,39,81,74,65,30.26,30.17,5,2,10,0.00
2013-12-29,67,55,42,55,49,40,94,81,59,30.12,29.96,5,1,14,0.00
2013-12-30,50,43,40,45,37,35,85,79,73,30.27,30.10,6,4,21,0.00
2013-12-31,49,44,41,44,37,34,83,74,65,30.40,30.28,4,2,16,0.01
2014-1-1,57,49,46,53,46,43,92,90,84,30.23,30.05,1,0,5,0.00
2014-1-2,58,49,41,56,40,30,95,71,51,30.40,30.01,12,4,29,0.01